Regional Weather Roundup
Issued by NWS

Home | Current Version | Previous Version | Graphics & Text | Print | Product List | Glossary On
Versions: 1 2 3 4 5 6 7 8 9 10 11 12 13 14 15 16 17 18 19 20 21 22 23 24 25 26 27
000
ASUS45 KCYS 200810
RWRWY

WYOMING REGIONAL WEATHER ROUNDUP
NATIONAL WEATHER SERVICE CHEYENNE WY
200 AM MDT SUN APR 20 2014

NOTE:  "FAIR" INDICATES FEW OR NO CLOUDS BELOW 12,000 FEET
WITH NO SIGNIFICANT WEATHER AND/OR OBSTRUCTIONS TO VISIBILITY.

WYZ001-200900-
YELLOWSTONE NATIONAL PARK

CITY           SKY/WX    TMP DP  RH WIND       PRES   REMARKS
LK YELLOWSTONE   N/A     25  20  81 NW3       30.10S
W YELLOWSTONE  NOT AVBL

$$
WYZ002>013-054>058-071-098>099-200900-
NORTHERN WYOMING

CITY           SKY/WX    TMP DP  RH WIND       PRES   REMARKS
JACKSON        PTCLDY    37  27  65 E3        30.07R
CODY           PTCLDY    48  23  37 SW3       29.94R
GREYBULL       CLEAR     40  32  73 CALM      29.92R
WORLAND        CLEAR     39  31  72 SE6       29.93S WCI  35
SHERIDAN         N/A     43  34  70 SW13        N/A
BUFFALO        CLEAR     42  25  50 SW9       29.94F
GILLETTE       CLEAR     45  32  60 S14       29.93F
HULETT         FAIR      46  32  57 W3        29.94
NEWCASTLE      FAIR      50  32  50 E9        29.97

$$
WYZ014>020-022>026-101>103-200900-
CENTRAL WYOMING

CITY           SKY/WX    TMP DP  RH WIND       PRES   REMARKS
BIG PINEY      CLEAR     28  18  66 NW5       30.11S WCI  23
PINEDALE       PTSUNNY   30  27  86 NW5       30.13R WCI  25
DUBOIS         FAIR      34  23  64 W13       30.06S WCI  25
LANDER         CLEAR     44  25  47 CALM      30.00R
RIVERTON       CLEAR     43  18  36 W6        30.01R
CASPER         CLEAR     44  32  62 SW12      29.99R
DOUGLAS        PTCLDY    47  37  68 SE6       29.98S

$$
WYZ021-027>030-104>119-200900-
SOUTHERN WYOMING

CITY           SKY/WX    TMP DP  RH WIND       PRES   REMARKS
EVANSTON       CLEAR     44  29  55 S7        30.13S
KEMMERER       SUNNY     37  28  70 N3        30.14S
FORT BRIDGER   FAIR      46  28  49 W9        30.15F
ROCK SPRINGS   CLEAR     44  29  55 SW9       30.11S
DIXON          PTSUNNY   36  32  87 CALM      30.16S
RAWLINS        CLEAR     43  33  68 SW5       30.10S
SARATOGA       PTSUNNY   41  32  70 SE7       30.12F
LARAMIE        CLEAR     35  31  85 S8        30.11R WCI  29
CHEYENNE       PTCLDY    46  39  76 SW12      30.06F
TORRINGTON     PTCLDY    47  38  71 E7        29.99S
PINE BLUFFS    FAIR      41  37  87 S8        30.04F

$$



USA.gov is the U.S. government's official web portal to all federal, state and local government web resources and services.